owner,sensor,date,latitude,longitude,vertical_datum,wind_speed,wind_to_direction,wind_speed_of_gust,qcFlag 
TABS,ioos:station:wmo:42043:1,2011-11-01T00:00:00Z,28.9818,-94.9186,4.0,3.324154028,105.709022,4.97,'11111222,11111222,11111222' 
TABS,ioos:station:wmo:42043:1,2011-11-01T00:30:00Z,28.9818,-94.9186,4.0,4.10182886,117.7523909,5.82,'11111222,11111222,11111222' 
TABS,ioos:station:wmo:42043:1,2011-11-01T01:00:00Z,28.9818,-94.9186,4.0,4.054232356,120.8671582,5.2,'11111222,11111222,11111222' 
TABS,ioos:station:wmo:42043:1,2011-11-01T01:30:00Z,28.9818,-94.9186,4.0,4.289207386,121.170286,6.12,'11111222,11111222,11111222' 
TABS,ioos:station:wmo:42043:1,2011-11-01T02:00:00Z,28.9818,-94.9186,4.0,3.812833592,121.8145852,5.59,'11111222,11111222,11111222' 
TABS,ioos:station:wmo:42043:1,2011-11-01T02:30:00Z,28.9818,-94.9186,4.0,4.056426999,117.1339258,5.42,'11111222,11111222,11111222' 
TABS,ioos:station:wmo:42043:1,2011-11-01T03:00:00Z,28.9818,-94.9186,4.0,4.13407789,119.7280422,5.74,'11111222,11111222,11111222' 
TABS,ioos:station:wmo:42043:1,2011-11-01T03:30:00Z,28.9818,-94.9186,4.0,4.377590662,118.965969,6.14,'11111222,11111222,11111222' 
TABS,ioos:station:wmo:42043:1,2011-11-01T04:00:00Z,28.9818,-94.9186,4.0,4.289906759,115.2512461,5.57,'11111222,11111222,11111222' 
TABS,ioos:station:wmo:42043:1,2011-11-01T04:30:00Z,28.9818,-94.9186,4.0,5.161172347,117.2108276,6.38,'11111222,11111222,11111222' 
TABS,ioos:station:wmo:42043:1,2011-11-01T05:00:00Z,28.9818,-94.9186,4.0,5.243090692,124.9028349,6.76,'11111222,11111222,11111222' 
TABS,ioos:station:wmo:42043:1,2011-11-01T05:30:00Z,28.9818,-94.9186,4.0,5.004448022,122.515442,6.33,'11111222,11111222,11111222' 
TABS,ioos:station:wmo:42043:1,2011-11-01T06:00:00Z,28.9818,-94.9186,4.0,5.24126893,114.2181408,6.95,'11111222,11111222,11111222' 
TABS,ioos:station:wmo:42043:1,2011-11-01T06:30:00Z,28.9818,-94.9186,4.0,5.324002254,128.4416466,6.68,'11111222,11111222,11111222' 
TABS,ioos:station:wmo:42043:1,2011-11-01T07:00:00Z,28.9818,-94.9186,4.0,5.390398872,136.6540613,6.9,'11111222,11111222,11111222' 
TABS,ioos:station:wmo:42043:1,2011-11-01T07:30:00Z,28.9818,-94.9186,4.0,5.183743821,131.8725169,6.82,'11111222,11111222,11111222' 
TABS,ioos:station:wmo:42043:1,2011-11-01T08:00:00Z,28.9818,-94.9186,4.0,5.692354522,130.9400628,7.51,'11111222,11111222,11111222' 
TABS,ioos:station:wmo:42043:1,2011-11-01T08:30:00Z,28.9818,-94.9186,4.0,5.921021871,127.9347249,7.55,'11111222,11111222,11111222' 
TABS,ioos:station:wmo:42043:1,2011-11-01T09:00:00Z,28.9818,-94.9186,4.0,5.592003219,126.9317083,7.06,'11111222,11111222,11111222' 
TABS,ioos:station:wmo:42043:1,2011-11-01T09:30:00Z,28.9818,-94.9186,4.0,6.166441437,131.0551387,8.16,'11111222,11111222,11111222' 
TABS,ioos:station:wmo:42043:1,2011-11-01T10:00:00Z,28.9818,-94.9186,4.0,6.069802303,131.7279315,7.95,'11111222,11111222,11111222' 
TABS,ioos:station:wmo:42043:1,2011-11-01T10:30:00Z,28.9818,-94.9186,4.0,5.989657753,130.1243409,8.11,'11111222,11111222,11111222' 
TABS,ioos:station:wmo:42043:1,2011-11-01T11:00:00Z,28.9818,-94.9186,4.0,5.983218198,130.0511174,7.61,'11111222,11111222,11111222' 
TABS,ioos:station:wmo:42043:1,2011-11-01T11:30:00Z,28.9818,-94.9186,4.0,5.587351788,131.8808254,7.26,'11111222,11111222,11111222' 
TABS,ioos:station:wmo:42043:1,2011-11-01T12:00:00Z,28.9818,-94.9186,4.0,5.203777474,128.3678166,7.14,'11111222,11111222,11111222' 
TABS,ioos:station:wmo:42043:1,2011-11-01T12:30:00Z,28.9818,-94.9186,4.0,5.259629265,132.3033221,6.8,'11111222,11111222,11111222' 
TABS,ioos:station:wmo:42043:1,2011-11-01T13:00:00Z,28.9818,-94.9186,4.0,5.26901319,136.1537634,6.67,'11111222,11111222,11111222' 
TABS,ioos:station:wmo:42043:1,2011-11-01T13:30:00Z,28.9818,-94.9186,4.0,5.052019398,143.2891752,6.52,'11111222,11111222,11111222' 
TABS,ioos:station:wmo:42043:1,2011-11-01T14:00:00Z,28.9818,-94.9186,4.0,5.016383159,143.8385627,6.39,'11111222,11111222,11111222' 
TABS,ioos:station:wmo:42043:1,2011-11-01T14:30:00Z,28.9818,-94.9186,4.0,4.835173213,137.7664754,6.32,'11111222,11111222,11111222' 
TABS,ioos:station:wmo:42043:1,2011-11-01T15:00:00Z,28.9818,-94.9186,4.0,5.385396921,139.7452038,7.35,'11111222,11111222,11111222' 
TABS,ioos:station:wmo:42043:1,2011-11-01T15:30:00Z,28.9818,-94.9186,4.0,5.336215888,142.6150098,6.66,'11111222,11111222,11111222' 
TABS,ioos:station:wmo:42043:1,2011-11-01T16:00:00Z,28.9818,-94.9186,4.0,5.690430564,142.4255672,7.37,'11111222,11111222,11111222' 
TABS,ioos:station:wmo:42043:1,2011-11-01T16:30:00Z,28.9818,-94.9186,4.0,5.299528281,140.5131152,6.99,'11111222,11111222,11111222' 
TABS,ioos:station:wmo:42043:1,2011-11-01T17:00:00Z,28.9818,-94.9186,4.0,5.525477355,141.0975787,7.03,'11111222,11111222,11111222' 
TABS,ioos:station:wmo:42043:1,2011-11-01T17:30:00Z,28.9818,-94.9186,4.0,5.765500846,140.2074563,7.25,'11111222,11111222,11111222' 
TABS,ioos:station:wmo:42043:1,2011-11-01T18:00:00Z,28.9818,-94.9186,4.0,5.33922279,135.8350276,6.99,'11111222,11111222,11111222' 
TABS,ioos:station:wmo:42043:1,2011-11-01T18:30:00Z,28.9818,-94.9186,4.0,6.024566374,135.1348123,7.8,'11111222,11111222,11111222' 
TABS,ioos:station:wmo:42043:1,2011-11-01T19:00:00Z,28.9818,-94.9186,4.0,6.330244861,139.870246,7.91,'11111222,11111222,11111222' 
TABS,ioos:station:wmo:42043:1,2011-11-01T19:30:00Z,28.9818,-94.9186,4.0,6.230096307,135.7156612,7.93,'11111222,11111222,11111222' 
TABS,ioos:station:wmo:42043:1,2011-11-01T20:00:00Z,28.9818,-94.9186,4.0,7.200027778,136.2383393,9.09,'11111222,11111222,11111222' 
TABS,ioos:station:wmo:42043:1,2011-11-01T20:30:00Z,28.9818,-94.9186,4.0,7.332782555,134.7240611,9.04,'11111222,11111222,11111222' 
TABS,ioos:station:wmo:42043:1,2011-11-01T21:00:00Z,28.9818,-94.9186,4.0,6.39935153,134.8103861,8.49,'11111222,11111222,11111222' 
TABS,ioos:station:wmo:42043:1,2011-11-01T21:30:00Z,28.9818,-94.9186,4.0,6.320292715,130.4442964,7.77,'11111222,11111222,11111222' 
TABS,ioos:station:wmo:42043:1,2011-11-01T22:00:00Z,28.9818,-94.9186,4.0,5.824748922,132.5651517,8.08,'11111222,11111222,11111222' 
TABS,ioos:station:wmo:42043:1,2011-11-01T22:30:00Z,28.9818,-94.9186,4.0,5.04103164,137.8948216,7.06,'11111222,11111222,11111222' 
TABS,ioos:station:wmo:42043:1,2011-11-01T23:00:00Z,28.9818,-94.9186,4.0,5.121181504,141.8996272,6.74,'11111222,11111222,11111222' 
TABS,ioos:station:wmo:42043:1,2011-11-01T23:30:00Z,28.9818,-94.9186,4.0,5.156442572,145.5089363,6.62,'11111222,11111222,11111222' 
TABS,ioos:station:wmo:42043:1,2011-11-02T00:00:00Z,28.9818,-94.9186,4.0,5.864511915,140.8827475,7.77,'11111222,11111222,11111222' 
TABS,ioos:station:wmo:42043:1,2011-11-02T00:30:00Z,28.9818,-94.9186,4.0,6.129437168,137.5128316,7.78,'11111222,11111222,11111222' 
TABS,ioos:station:wmo:42043:1,2011-11-02T01:00:00Z,28.9818,-94.9186,4.0,6.307535176,135.3857066,8.25,'11111222,11111222,11111222' 
TABS,ioos:station:wmo:42043:1,2011-11-02T01:30:00Z,28.9818,-94.9186,4.0,6.160422063,131.9737091,7.68,'11111222,11111222,11111222' 
TABS,ioos:station:wmo:42043:1,2011-11-02T02:00:00Z,28.9818,-94.9186,4.0,6.009034864,139.6575634,8.35,'11111222,11111222,11111222' 
TABS,ioos:station:wmo:42043:1,2011-11-02T02:30:00Z,28.9818,-94.9186,4.0,5.604855038,137.3140328,7.57,'11111222,11111222,11111222' 
TABS,ioos:station:wmo:42043:1,2011-11-02T03:00:00Z,28.9818,-94.9186,4.0,6.240416653,146.1065047,7.46,'11111222,11111222,11111222' 
TABS,ioos:station:wmo:42043:1,2011-11-02T03:30:00Z,28.9818,-94.9186,4.0,6.287909032,146.9420405,8.17,'11111222,11111222,11111222' 
TABS,ioos:station:wmo:42043:1,2011-11-02T04:00:00Z,28.9818,-94.9186,4.0,6.685843253,153.4352214,8.54,'11111222,11111222,11111222' 
TABS,ioos:station:wmo:42043:1,2011-11-02T04:30:00Z,28.9818,-94.9186,4.0,7.435872511,146.6307833,9.33,'11111222,11111222,11111222' 
TABS,ioos:station:wmo:42043:1,2011-11-02T05:00:00Z,28.9818,-94.9186,4.0,6.304363568,148.7559732,7.83,'11111222,11111222,11111222' 
TABS,ioos:station:wmo:42043:1,2011-11-02T05:30:00Z,28.9818,-94.9186,4.0,6.11478536,152.2199145,8.26,'11111222,11111222,11111222' 
TABS,ioos:station:wmo:42043:1,2011-11-02T06:00:00Z,28.9818,-94.9186,4.0,6.040571165,150.5495216,7.41,'11111222,11111222,11111222' 
TABS,ioos:station:wmo:42043:1,2011-11-02T06:30:00Z,28.9818,-94.9186,4.0,6.670367306,156.7791169,8.69,'11111222,11111222,11111222' 
TABS,ioos:station:wmo:42043:1,2011-11-02T07:00:00Z,28.9818,-94.9186,4.0,5.974487426,155.5801232,7.54,'11111222,11111222,11111222' 
TABS,ioos:station:wmo:42043:1,2011-11-02T07:30:00Z,28.9818,-94.9186,4.0,6.606693575,151.0299078,8.12,'11111222,11111222,11111222' 
TABS,ioos:station:wmo:42043:1,2011-11-02T08:00:00Z,28.9818,-94.9186,4.0,6.328040771,151.2886526,7.72,'11111222,11111222,11111222' 
TABS,ioos:station:wmo:42043:1,2011-11-02T08:30:00Z,28.9818,-94.9186,4.0,5.010429123,144.9145906,6.58,'11111222,11111222,11111222' 
TABS,ioos:station:wmo:42043:1,2011-11-02T09:00:00Z,28.9818,-94.9186,4.0,5.210767698,159.7916894,6.42,'11111222,11111222,11111222' 
TABS,ioos:station:wmo:42043:1,2011-11-02T09:30:00Z,28.9818,-94.9186,4.0,4.070884425,162.8561304,5.15,'11111222,11111222,11111222' 
TABS,ioos:station:wmo:42043:1,2011-11-02T10:00:00Z,28.9818,-94.9186,4.0,3.448898375,138.1736223,4.88,'11111222,11111222,11111222' 
TABS,ioos:station:wmo:42043:1,2011-11-02T10:30:00Z,28.9818,-94.9186,4.0,4.106409624,127.6795179,5.08,'11111222,11111222,11111222' 
TABS,ioos:station:wmo:42043:1,2011-11-02T11:00:00Z,28.9818,-94.9186,4.0,3.528469923,124.7263029,4.5,'11111222,11111222,11111222' 
TABS,ioos:station:wmo:42043:1,2011-11-02T11:30:00Z,28.9818,-94.9186,4.0,3.634735204,122.0725658,4.43,'11111222,11111222,11111222' 
TABS,ioos:station:wmo:42043:1,2011-11-02T12:00:00Z,28.9818,-94.9186,4.0,4.143669871,123.3836086,5.32,'11111222,11111222,11111222' 
TABS,ioos:station:wmo:42043:1,2011-11-02T12:30:00Z,28.9818,-94.9186,4.0,3.323386827,154.5146886,4.19,'11111222,11111222,11111222' 
TABS,ioos:station:wmo:42043:1,2011-11-02T13:00:00Z,28.9818,-94.9186,4.0,4.888292135,149.9210204,6.12,'11111222,11111222,11111222' 
TABS,ioos:station:wmo:42043:1,2011-11-02T13:30:00Z,28.9818,-94.9186,4.0,3.896793554,160.3563229,5.0,'11111222,11111222,11111222' 
TABS,ioos:station:wmo:42043:1,2011-11-02T14:00:00Z,28.9818,-94.9186,4.0,2.495616156,160.3309888,3.12,'11111222,11111222,11111222' 
TABS,ioos:station:wmo:42043:1,2011-11-02T14:30:00Z,28.9818,-94.9186,4.0,2.268126981,142.5241185,2.82,'11111222,11111222,11111222' 
TABS,ioos:station:wmo:42043:1,2011-11-02T15:00:00Z,28.9818,-94.9186,4.0,2.16480946,152.4882722,2.75,'11111222,11111222,11111222' 
TABS,ioos:station:wmo:42043:1,2011-11-02T15:30:00Z,28.9818,-94.9186,4.0,1.829152809,153.0149675,2.29,'11111222,11111222,11111222' 
TABS,ioos:station:wmo:42043:1,2011-11-02T16:00:00Z,28.9818,-94.9186,4.0,1.923538406,152.1030047,2.43,'11111222,11111222,11111222' 
TABS,ioos:station:wmo:42043:1,2011-11-02T16:30:00Z,28.9818,-94.9186,4.0,1.46,138.8882162,1.99,'11111222,11111222,11111222' 
TABS,ioos:station:wmo:42043:1,2011-11-02T17:00:00Z,28.9818,-94.9186,4.0,1.789972067,140.440635,2.43,'11111222,11111222,11111222' 
TABS,ioos:station:wmo:42043:1,2011-11-02T17:30:00Z,28.9818,-94.9186,4.0,2.546369965,147.1839438,3.21,'11111222,11111222,11111222' 
TABS,ioos:station:wmo:42043:1,2011-11-02T18:00:00Z,28.9818,-94.9186,4.0,2.615530539,146.8570352,3.39,'11111222,11111222,11111222' 
TABS,ioos:station:wmo:42043:1,2011-11-02T18:30:00Z,28.9818,-94.9186,4.0,2.676863837,141.6747691,3.39,'11111222,11111222,11111222' 
TABS,ioos:station:wmo:42043:1,2011-11-02T19:00:00Z,28.9818,-94.9186,4.0,2.90945012,146.6379339,3.97,'11111222,11111222,11111222' 
TABS,ioos:station:wmo:42043:1,2011-11-02T19:30:00Z,28.9818,-94.9186,4.0,2.885550207,136.1236158,3.61,'11111222,11111222,11111222' 
TABS,ioos:station:wmo:42043:1,2011-11-02T20:00:00Z,28.9818,-94.9186,4.0,2.422003303,143.2250243,3.32,'11111222,11111222,11111222' 
TABS,ioos:station:wmo:42043:1,2011-11-02T20:30:00Z,28.9818,-94.9186,4.0,1.430314651,149.3113235,1.89,'11111222,11111222,11111222' 
TABS,ioos:station:wmo:42043:1,2011-11-02T21:00:00Z,28.9818,-94.9186,4.0,2.053216988,122.0648884,2.59,'11111222,11111222,11111222' 
TABS,ioos:station:wmo:42043:1,2011-11-02T21:30:00Z,28.9818,-94.9186,4.0,2.538858011,125.3806104,3.86,'11111222,11111222,11111222' 
TABS,ioos:station:wmo:42043:1,2011-11-02T22:00:00Z,28.9818,-94.9186,4.0,4.524875689,140.470346,5.7,'11111222,11111222,11111222' 
TABS,ioos:station:wmo:42043:1,2011-11-02T22:30:00Z,28.9818,-94.9186,4.0,6.720751446,160.6216971,8.67,'11111222,11111222,11111222' 
TABS,ioos:station:wmo:42043:1,2011-11-02T23:00:00Z,28.9818,-94.9186,4.0,6.916277901,170.4289575,8.88,'11111222,11111222,11111222' 
TABS,ioos:station:wmo:42043:1,2011-11-02T23:30:00Z,28.9818,-94.9186,4.0,6.390320806,170.9064134,7.73,'11111222,11111222,11111222' 
TABS,ioos:station:wmo:42043:1,2011-11-03T00:00:00Z,28.9818,-94.9186,4.0,5.71210119,171.5438618,7.2,'11111222,11111222,11111222' 
TABS,ioos:station:wmo:42043:1,2011-11-03T00:30:00Z,28.9818,-94.9186,4.0,4.347528033,174.8535202,5.68,'11111222,11111222,11111222' 
TABS,ioos:station:wmo:42043:1,2011-11-03T01:00:00Z,28.9818,-94.9186,4.0,3.781071277,178.6362861,4.87,'11111222,11111222,11111222' 
TABS,ioos:station:wmo:42043:1,2011-11-03T01:30:00Z,28.9818,-94.9186,4.0,3.992242478,166.3817006,5.0,'11111222,11111222,11111222' 
TABS,ioos:station:wmo:42043:1,2011-11-03T02:00:00Z,28.9818,-94.9186,4.0,2.706806236,171.9299972,3.39,'11111222,11111222,11111222' 
TABS,ioos:station:wmo:42043:1,2011-11-03T02:30:00Z,28.9818,-94.9186,4.0,2.707027891,145.8405958,3.46,'11111222,11111222,11111222' 
TABS,ioos:station:wmo:42043:1,2011-11-03T03:00:00Z,28.9818,-94.9186,4.0,2.801446055,181.8412224,3.49,'11111222,11111222,11111222' 
TABS,ioos:station:wmo:42043:1,2011-11-03T03:30:00Z,28.9818,-94.9186,4.0,2.691858094,177.8712412,3.69,'11111222,11111222,11111222' 
TABS,ioos:station:wmo:42043:1,2011-11-03T04:00:00Z,28.9818,-94.9186,4.0,1.375390854,193.0260206,2.03,'11111222,11111222,11111222' 
TABS,ioos:station:wmo:42043:1,2011-11-03T04:30:00Z,28.9818,-94.9186,4.0,2.36241402,189.5023822,3.02,'11111222,11111222,11111222' 
TABS,ioos:station:wmo:42043:1,2011-11-03T05:00:00Z,28.9818,-94.9186,4.0,2.508804496,184.8017726,3.25,'11111222,11111222,11111222' 
TABS,ioos:station:wmo:42043:1,2011-11-03T05:30:00Z,28.9818,-94.9186,4.0,2.814764644,190.2322071,3.47,'11111222,11111222,11111222' 
TABS,ioos:station:wmo:42043:1,2011-11-03T06:00:00Z,28.9818,-94.9186,4.0,3.218850727,194.9430587,4.07,'11111222,11111222,11111222' 
TABS,ioos:station:wmo:42043:1,2011-11-03T06:30:00Z,28.9818,-94.9186,4.0,3.26695577,202.876347,4.08,'11111222,11111222,11111222' 
TABS,ioos:station:wmo:42043:1,2011-11-03T07:00:00Z,28.9818,-94.9186,4.0,2.507269431,213.9437181,3.22,'11111222,11111222,11111222' 
TABS,ioos:station:wmo:42043:1,2011-11-03T07:30:00Z,28.9818,-94.9186,4.0,10.31042676,317.2402429,16.28,'11111222,11111222,11111222' 
TABS,ioos:station:wmo:42043:1,2011-11-03T08:00:00Z,28.9818,-94.9186,4.0,11.68224722,322.7572331,15.32,'11111222,11111222,11111222' 
TABS,ioos:station:wmo:42043:1,2011-11-03T08:30:00Z,28.9818,-94.9186,4.0,10.68898966,334.0341055,15.26,'11111222,11111222,11111222' 
TABS,ioos:station:wmo:42043:1,2011-11-03T09:00:00Z,28.9818,-94.9186,4.0,11.31049955,332.9137394,14.39,'11111222,11111222,11111222' 
TABS,ioos:station:wmo:42043:1,2011-11-03T09:30:00Z,28.9818,-94.9186,4.0,11.7974955,333.4130811,16.65,'11111222,11111222,11111222' 
TABS,ioos:station:wmo:42043:1,2011-11-03T10:00:00Z,28.9818,-94.9186,4.0,11.72827779,335.9480725,15.33,'11111222,11111222,11111222' 
TABS,ioos:station:wmo:42043:1,2011-11-03T10:30:00Z,28.9818,-94.9186,4.0,11.83773627,339.1152269,16.39,'11111222,11111222,11111222' 
TABS,ioos:station:wmo:42043:1,2011-11-03T11:00:00Z,28.9818,-94.9186,4.0,12.57455367,340.7291414,15.93,'11111222,11111222,11111222' 
TABS,ioos:station:wmo:42043:1,2011-11-03T11:30:00Z,28.9818,-94.9186,4.0,11.27390349,347.3442267,15.21,'11111222,11111222,11111222' 
TABS,ioos:station:wmo:42043:1,2011-11-03T12:00:00Z,28.9818,-94.9186,4.0,10.98784783,339.3217311,14.43,'11111222,11111222,11111222' 
TABS,ioos:station:wmo:42043:1,2011-11-03T12:30:00Z,28.9818,-94.9186,4.0,11.77391184,340.0874086,14.72,'11111222,11111222,11111222' 
TABS,ioos:station:wmo:42043:1,2011-11-03T13:00:00Z,28.9818,-94.9186,4.0,11.69773055,342.0760236,16.44,'11111222,11111222,11111222' 
TABS,ioos:station:wmo:42043:1,2011-11-03T13:30:00Z,28.9818,-94.9186,4.0,11.20764471,343.0361674,14.82,'11111222,11111222,11111222' 
TABS,ioos:station:wmo:42043:1,2011-11-03T14:00:00Z,28.9818,-94.9186,4.0,11.10375162,342.3318262,14.72,'11111222,11111222,11111222' 
TABS,ioos:station:wmo:42043:1,2011-11-03T14:30:00Z,28.9818,-94.9186,4.0,10.73465416,346.0930311,13.78,'11111222,11111222,11111222' 
TABS,ioos:station:wmo:42043:1,2011-11-03T15:00:00Z,28.9818,-94.9186,4.0,10.33530358,353.555539,13.5,'11111222,11111222,11111222' 
TABS,ioos:station:wmo:42043:1,2011-11-03T15:30:00Z,28.9818,-94.9186,4.0,10.89901372,347.9784931,13.85,'11111222,11111222,11111222' 
TABS,ioos:station:wmo:42043:1,2011-11-03T16:00:00Z,28.9818,-94.9186,4.0,10.42391481,352.7248016,13.33,'11111222,11111222,11111222' 
TABS,ioos:station:wmo:42043:1,2011-11-03T16:30:00Z,28.9818,-94.9186,4.0,10.43393023,346.1367172,12.97,'11111222,11111222,11111222' 
TABS,ioos:station:wmo:42043:1,2011-11-03T17:00:00Z,28.9818,-94.9186,4.0,10.52867513,346.3199398,13.13,'11111222,11111222,11111222' 
TABS,ioos:station:wmo:42043:1,2011-11-03T17:30:00Z,28.9818,-94.9186,4.0,8.833572324,349.3004712,11.42,'11111222,11111222,11111222' 
TABS,ioos:station:wmo:42043:1,2011-11-03T18:00:00Z,28.9818,-94.9186,4.0,9.474075153,353.3323651,13.07,'11111222,11111222,11111222' 
TABS,ioos:station:wmo:42043:1,2011-11-03T18:30:00Z,28.9818,-94.9186,4.0,8.05294977,348.1038306,11.19,'11111222,11111222,11111222' 
TABS,ioos:station:wmo:42043:1,2011-11-03T19:00:00Z,28.9818,-94.9186,4.0,7.906706015,342.4815359,10.56,'11111222,11111222,11111222' 
TABS,ioos:station:wmo:42043:1,2011-11-03T19:30:00Z,28.9818,-94.9186,4.0,7.322055722,340.4512858,10.32,'11111222,11111222,11111222' 
TABS,ioos:station:wmo:42043:1,2011-11-03T20:00:00Z,28.9818,-94.9186,4.0,7.354705976,331.9365334,10.12,'11111222,11111222,11111222' 
TABS,ioos:station:wmo:42043:1,2011-11-03T20:30:00Z,28.9818,-94.9186,4.0,7.079046546,336.2592405,10.43,'11111222,11111222,11111222' 
TABS,ioos:station:wmo:42043:1,2011-11-03T21:00:00Z,28.9818,-94.9186,4.0,7.75366365,336.6751157,10.25,'11111222,11111222,11111222' 
TABS,ioos:station:wmo:42043:1,2011-11-03T21:30:00Z,28.9818,-94.9186,4.0,7.674327332,326.102734,10.65,'11111222,11111222,11111222' 
TABS,ioos:station:wmo:42043:1,2011-11-03T22:00:00Z,28.9818,-94.9186,4.0,8.152723471,333.5605176,11.24,'11111222,11111222,11111222' 
TABS,ioos:station:wmo:42043:1,2011-11-03T22:30:00Z,28.9818,-94.9186,4.0,9.146857384,339.1871917,11.71,'11111222,11111222,11111222' 
TABS,ioos:station:wmo:42043:1,2011-11-03T23:00:00Z,28.9818,-94.9186,4.0,7.909039133,341.9543324,10.57,'11111222,11111222,11111222' 
TABS,ioos:station:wmo:42043:1,2011-11-03T23:30:00Z,28.9818,-94.9186,4.0,8.98178156,339.2646041,12.25,'11111222,11111222,11111222' 
TABS,ioos:station:wmo:42043:1,2011-11-04T00:00:00Z,28.9818,-94.9186,4.0,8.723359445,342.7280874,11.48,'11111222,11111222,11111222' 
TABS,ioos:station:wmo:42043:1,2011-11-04T00:30:00Z,28.9818,-94.9186,4.0,9.256224932,341.1538186,12.07,'11111222,11111222,11111222' 
TABS,ioos:station:wmo:42043:1,2011-11-04T01:00:00Z,28.9818,-94.9186,4.0,9.210515729,338.3370493,12.16,'11111222,11111222,11111222' 
TABS,ioos:station:wmo:42043:1,2011-11-04T01:30:00Z,28.9818,-94.9186,4.0,8.45218315,340.1499348,11.04,'11111222,11111222,11111222' 
TABS,ioos:station:wmo:42043:1,2011-11-04T02:00:00Z,28.9818,-94.9186,4.0,8.51805729,340.3098142,11.95,'11111222,11111222,11111222' 
TABS,ioos:station:wmo:42043:1,2011-11-04T02:30:00Z,28.9818,-94.9186,4.0,8.906289912,345.4330788,11.59,'11111222,11111222,11111222' 
TABS,ioos:station:wmo:42043:1,2011-11-04T03:00:00Z,28.9818,-94.9186,4.0,8.276472679,351.2431212,11.25,'11111222,11111222,11111222' 
TABS,ioos:station:wmo:42043:1,2011-11-04T03:30:00Z,28.9818,-94.9186,4.0,8.792161282,354.3864748,11.57,'11111222,11111222,11111222' 
TABS,ioos:station:wmo:42043:1,2011-11-04T04:00:00Z,28.9818,-94.9186,4.0,9.717247553,343.5603755,12.43,'11111222,11111222,11111222' 
TABS,ioos:station:wmo:42043:1,2011-11-04T04:30:00Z,28.9818,-94.9186,4.0,8.990984373,350.5898716,11.54,'11111222,11111222,11111222' 
TABS,ioos:station:wmo:42043:1,2011-11-04T05:00:00Z,28.9818,-94.9186,4.0,7.965280912,357.9133082,11.18,'11111222,11111222,11111222' 
TABS,ioos:station:wmo:42043:1,2011-11-04T05:30:00Z,28.9818,-94.9186,4.0,8.802181548,352.1642828,12.41,'11111222,11111222,11111222' 
TABS,ioos:station:wmo:42043:1,2011-11-04T06:00:00Z,28.9818,-94.9186,4.0,8.482246165,353.6372344,11.2,'11111222,11111222,11111222' 
TABS,ioos:station:wmo:42043:1,2011-11-04T06:30:00Z,28.9818,-94.9186,4.0,8.180770135,353.6132069,10.64,'11111222,11111222,11111222' 
TABS,ioos:station:wmo:42043:1,2011-11-04T07:00:00Z,28.9818,-94.9186,4.0,8.273487777,346.6522357,10.75,'11111222,11111222,11111222' 
TABS,ioos:station:wmo:42043:1,2011-11-04T07:30:00Z,28.9818,-94.9186,4.0,7.90736998,352.5152925,10.62,'11111222,11111222,11111222' 
TABS,ioos:station:wmo:42043:1,2011-11-04T08:00:00Z,28.9818,-94.9186,4.0,8.255059055,354.7173997,11.23,'11111222,11111222,11111222' 
TABS,ioos:station:wmo:42043:1,2011-11-04T08:30:00Z,28.9818,-94.9186,4.0,8.564607405,352.9577668,11.28,'11111222,11111222,11111222' 
TABS,ioos:station:wmo:42043:1,2011-11-04T09:00:00Z,28.9818,-94.9186,4.0,8.397380544,356.312805,10.91,'11111222,11111222,11111222' 
TABS,ioos:station:wmo:42043:1,2011-11-04T09:30:00Z,28.9818,-94.9186,4.0,8.151349582,356.975926,10.37,'11111222,11111222,11111222' 
TABS,ioos:station:wmo:42043:1,2011-11-04T10:00:00Z,28.9818,-94.9186,4.0,7.894814754,353.8920318,10.93,'11111222,11111222,11111222' 
TABS,ioos:station:wmo:42043:1,2011-11-04T10:30:00Z,28.9818,-94.9186,4.0,7.634094576,358.1231462,10.39,'11111222,11111222,11111222' 
TABS,ioos:station:wmo:42043:1,2011-11-04T11:00:00Z,28.9818,-94.9186,4.0,7.190445049,359.3623121,10.03,'11111222,11144222,11111222' 
TABS,ioos:station:wmo:42043:1,2011-11-04T11:30:00Z,28.9818,-94.9186,4.0,7.484711083,5.519943127,9.76,'11111222,11111222,11111222' 
TABS,ioos:station:wmo:42043:1,2011-11-04T12:00:00Z,28.9818,-94.9186,4.0,7.49096122,4.287026036,10.15,'11111222,11111222,11111222' 
TABS,ioos:station:wmo:42043:1,2011-11-04T12:30:00Z,28.9818,-94.9186,4.0,6.521479893,5.631690581,9.08,'11111222,11111222,11111222' 
TABS,ioos:station:wmo:42043:1,2011-11-04T13:00:00Z,28.9818,-94.9186,4.0,6.594209581,23.22114367,9.34,'11111222,11111222,11111222' 
TABS,ioos:station:wmo:42043:1,2011-11-04T13:30:00Z,28.9818,-94.9186,4.0,6.806621776,36.09515513,8.79,'11111222,11111222,11111222' 
TABS,ioos:station:wmo:42043:1,2011-11-04T14:00:00Z,28.9818,-94.9186,4.0,6.62897428,34.24114195,8.77,'11111222,11111222,11111222' 
TABS,ioos:station:wmo:42043:1,2011-11-04T14:30:00Z,28.9818,-94.9186,4.0,6.13514466,34.10420611,9.0,'11111222,11111222,11111222' 
TABS,ioos:station:wmo:42043:1,2011-11-04T15:00:00Z,28.9818,-94.9186,4.0,5.507749087,32.01612478,7.46,'11111222,11111222,11111222' 
TABS,ioos:station:wmo:42043:1,2011-11-04T15:30:00Z,28.9818,-94.9186,4.0,4.822986627,44.15963241,7.07,'11111222,11111222,11111222' 
TABS,ioos:station:wmo:42043:1,2011-11-04T16:00:00Z,28.9818,-94.9186,4.0,4.205948169,28.39274257,7.08,'11111222,11111222,11111222' 
TABS,ioos:station:wmo:42043:1,2011-11-04T16:30:00Z,28.9818,-94.9186,4.0,3.972958595,28.24187467,5.84,'11111222,11111222,11111222' 
TABS,ioos:station:wmo:42043:1,2011-11-04T17:00:00Z,28.9818,-94.9186,4.0,3.846764875,45.42096823,5.58,'11111222,11111222,11111222' 
TABS,ioos:station:wmo:42043:1,2011-11-04T17:30:00Z,28.9818,-94.9186,4.0,4.344801491,38.9272421,6.24,'11111222,11111222,11111222' 
TABS,ioos:station:wmo:42043:1,2011-11-04T18:00:00Z,28.9818,-94.9186,4.0,4.261079675,39.6675379,6.45,'11111222,11111222,11111222' 
TABS,ioos:station:wmo:42043:1,2011-11-04T18:30:00Z,28.9818,-94.9186,4.0,3.490057306,52.80142944,5.52,'11111222,11111222,11111222' 